Burnet, TX

9:08 PM CST on January 22, 2018 (GMT -0600)
Burnet Municipal-Craddock

Weather History for KBMQ - June, 2013

Change the Weather History Date:

Thursday, June 13, 2013

  Actual Average Record
Temperature  
Mean Temperature 83 °F -  
Max Temperature 93 °F 87 °F 98 °F (2011)
Min Temperature 73 °F 68 °F 66 °F (2003)
Cooling Degree Days 18    
Growing Degree Days 33 (Base 50)    
Moisture  
Dew Point 68 °F    
Average Humidity 70    
Maximum Humidity 88    
Minimum Humidity 41    
Precipitation  
Precipitation 0.00 in - - ()
Sea Level Pressure  
Sea Level Pressure 30.02 in    
Wind  
Wind Speed 6 mph (South)    
Max Wind Speed 13 mph    
Max Gust Speed 23 mph    
Visibility 9 miles    
Events      
Averages and records for this station are not official NWS values.
T = Trace of Precipitation, MM = Missing Value Source: NWS Daily Summary

Daily Weather History Graph

Daily Weather History Graph

Search for Another Location

Airport or City:

Trip Planner

Search our weather history database for the weather conditions in past years. The results will help you decide how hot, cold, wet, or windy it might be!

Date:

Astronomy

Jun. 13, 2013 Rise Set
Actual Time 6:29 AM CDT 8:36 PM CDT
Civil Twilight 6:01 AM CDT 9:04 PM CDT
Nautical Twilight 5:28 AM CDT 9:38 PM CDT
Astronomical Twilight 4:51 AM CDT 10:14 PM CDT
Moon 10:52 AM CDT (6/13) No Moon Set
Length of Visible Light 15h 02m
Length of Day
14h 07m
Waxing Crescent, 22% of the Moon is Illuminated
Jun 13
Waxing Crescent
Jun 16
First Quarter
Jun 23
Full
Jun 29
Last Quarter
Jul 8
New

Hourly Weather History & Observations

Time (CDT) Temp. Heat Index Dew Point Humidity Pressure Visibility Wind Dir Wind Speed Gust Speed Precip Events Conditions
12:53 AM 77.0 °F - 69.1 °F 76% 30.01 in 10.0 mi South 4.6 mph - N/A   Clear
1:53 AM 75.0 °F - 69.1 °F 82% 30.00 in 10.0 mi South 6.9 mph - N/A   Clear
2:53 AM 75.0 °F - 69.1 °F 82% 30.00 in 10.0 mi South 4.6 mph - N/A   Clear
3:40 AM 73.9 °F - 70.0 °F 87% 30.06 in 10.0 mi South 5.8 mph - N/A   Mostly Cloudy
3:53 AM 73.9 °F - 70.0 °F 87% 30.00 in 10.0 mi South 6.9 mph - N/A   Overcast
4:27 AM 73.9 °F - 70.0 °F 87% 30.06 in 9.0 mi South 5.8 mph - N/A   Scattered Clouds
4:53 AM 73.9 °F - 70.0 °F 87% 30.01 in 9.0 mi South 3.5 mph - N/A   Partly Cloudy
5:23 AM 73.9 °F - 70.0 °F 87% 30.07 in 9.0 mi South 3.5 mph - N/A   Mostly Cloudy
5:51 AM 73.4 °F - 69.8 °F 88% 30.07 in 9.0 mi South 3.5 mph - N/A   Scattered Clouds
5:53 AM 73.9 °F - 70.0 °F 87% 30.01 in 9.0 mi South 3.5 mph - N/A   Partly Cloudy
6:53 AM 73.9 °F - 70.0 °F 87% 30.03 in 7.0 mi South 4.6 mph - N/A   Partly Cloudy
7:53 AM 75.0 °F - 71.1 °F 87% 30.04 in 7.0 mi South 4.6 mph - N/A   Clear
8:24 AM 77.0 °F - 71.1 °F 82% 30.11 in 7.0 mi SSE 6.9 mph - N/A   Partly Cloudy
8:53 AM 78.1 °F - 71.1 °F 79% 30.06 in 8.0 mi South 5.8 mph - N/A   Mostly Cloudy
9:04 AM 79.0 °F - 71.1 °F 77% 30.12 in 9.0 mi Variable 5.8 mph - N/A   Scattered Clouds
9:13 AM 79.0 °F - 71.1 °F 77% 30.12 in 8.0 mi South 6.9 mph - N/A   Mostly Cloudy
9:53 AM 80.1 °F 83.6 °F 71.1 °F 74% 30.07 in 9.0 mi SSE 5.8 mph - N/A   Mostly Cloudy
10:25 AM 82.0 °F 85.9 °F 70.0 °F 67% 30.12 in 9.0 mi South 5.8 mph - N/A   Scattered Clouds
10:53 AM 84.0 °F 88.4 °F 70.0 °F 63% 30.06 in 8.0 mi South 10.4 mph - N/A   Scattered Clouds
11:53 AM 87.1 °F 91.3 °F 69.1 °F 55% 30.05 in 10.0 mi SSE 9.2 mph - N/A   Mostly Cloudy
12:53 PM 89.1 °F 92.1 °F 66.9 °F 48% 30.03 in 10.0 mi Variable 4.6 mph - N/A   Partly Cloudy
1:53 PM 91.9 °F 95.4 °F 66.9 °F 44% 30.01 in 10.0 mi South 6.9 mph - N/A   Partly Cloudy
2:53 PM 93.0 °F 95.9 °F 66.0 °F 41% 29.97 in 10.0 mi Variable 5.8 mph - N/A   Scattered Clouds
3:53 PM 91.9 °F 94.5 °F 66.0 °F 42% 29.96 in 10.0 mi SE 6.9 mph - N/A   Scattered Clouds
4:53 PM 93.0 °F 96.4 °F 66.9 °F 42% 29.94 in 10.0 mi SE 11.5 mph 19.6 mph N/A   Scattered Clouds
5:23 PM 86.0 °F 88.8 °F 66.9 °F 53% 30.00 in 10.0 mi South 12.7 mph 23.0 mph N/A   Partly Cloudy
5:53 PM 84.9 °F 87.1 °F 66.0 °F 53% 29.93 in 10.0 mi SSW 11.5 mph - N/A   Clear
6:53 PM 82.9 °F 84.6 °F 64.9 °F 54% 29.94 in 10.0 mi South 12.7 mph - N/A   Clear
7:53 PM 81.0 °F 81.9 °F 62.1 °F 52% 29.96 in 10.0 mi South 9.2 mph - N/A   Clear
8:53 PM 79.0 °F - 63.0 °F 58% 29.95 in 10.0 mi South 4.6 mph - N/A   Clear
9:53 PM 78.1 °F - 64.9 °F 64% 29.95 in 10.0 mi South 6.9 mph - N/A   Clear
10:53 PM 77.0 °F - 66.9 °F 71% 29.96 in 10.0 mi South 5.8 mph - N/A   Clear
11:53 PM 75.9 °F - 69.1 °F 79% 29.97 in 10.0 mi SSW 4.6 mph - N/A   Clear